sat.trackr.live / text

‹ back to catalog

STARLINK-1714

NORAD 46562 · 2020-070AG

PAYLOAD ACTIVE UNKNOWN

§ Identity

Operator
Country
US
Launch date
2020-10-06
Launch site
AFETR
Launch vehicle
Mass (kg)
RCS (m²)

Purposes: comms

External: N2YO · Heavens-Above · Gunter

§ Orbital elements

Epoch: 2026-09-06T04:10:56.787168Z

Period
88.05 min
Inclination
53.0117°
Eccentricity
0.0004594
Mean motion
16.35417788 rev/d
Perigee alt
175.0 km
Apogee alt
181.0 km
Semi-major
6,556.2 km
B*
8.7420e-4
RAAN
298.0192°
Arg perigee
325.9961°
Mean anomaly
34.0789°
Rev number
32,878

§ Raw data

STARLINK-17141 46562U 20070AG  26249.17426837  .07093892  12293-4  87420-3 0  99962 46562  53.0117 298.0192 0004594 325.9961  34.0789 16.35417788328789

JSON: /api/v1/satellites/46562 · /tle

For live sub-satellite position, see the globe view (requires WebGL).

§ Visibility from observer

Set your observer location to see the next 7 days of passes ≥ 10°. The values pass through the URL so the page stays shareable.

No JS? Fill the form by hand. The geolocation button needs JavaScript.